Meteo Giornale » Osservazioni meteo Corea del Sud » Chongju Ab
ore: 04:00 - Osservazioni Meteo Chongju Ab
Lat. 36° 42' N Lon. 127° 30' E Alt. 58 metri s.l.m.
23 °C
Molto Nuvoloso
Temp. 24 Ore
23 °C
28 °C
Ovest
7.4 Km/h
Dew point 22 °C
Umidità 94 %
Visibilità 10 Km
Il sole sorge alle ore 06:01
Il sole tramonta alle ore 18:57
| Data e Ora | Cielo e Fenomeni | T °C | DP °C | Um. % | Pres. hPa | Vis. km | Vento km/h | |
|---|---|---|---|---|---|---|---|---|
| Oggi h: 04:00 | Molto Nuvoloso | 23 | 22 | 94 | 1012 | 10 | O 7.4 | |
| Oggi h: 03:10 | Molto Nuvoloso | 23 | 22 | 94 | 1012 | 10 | N 1.8 | |
| Oggi h: 03:00 | Molto Nuvoloso | 23 | 22 | 94 | 1012 | 10 | N 1.8 | |
| Oggi h: 02:00 | Molto Nuvoloso | 23 | 22 | 94 | 1012 | 10 | N 1.8 | |
| Oggi h: 01:00 | Molto Nuvoloso | 23 | 22 | 94 | 1012 | 10 | N 5.5 | |
| Oggi h: 00:00 | Molto Nuvoloso | 23 | 22 | 94 | 1012 | 10 | N 3.7 | |
| Ieri h: 23:00 | Molto Nuvoloso | 23 | 22 | 94 | 1012 | 10 | N 1.8 | |
| Ieri h: 22:00 | Molto Nuvoloso | 23 | 22 | 94 | 1011 | 10 | N 5.5 | |
| Ieri h: 21:00 | Molto Nuvoloso | 23 | 22 | 94 | 1012 | 10 | N 1.8 | |
| Ieri h: 20:00 | Molto Nuvoloso | 23 | 22 | 94 | 1011 | 10 | N 3.7 | |
| Ieri h: 19:00 | Nuvoloso | 24 | 22 | 88 | 1010 | 10 | N 5.5 | |
| Ieri h: 18:00 | Molto Nuvoloso | 25 | 23 | 88 | 1010 | 10 | N 3.7 | |
| Ieri h: 17:00 | Molto Nuvoloso | 26 | 24 | 88 | 1010 | 10 | NE 7.4 | |
| Ieri h: 16:00 | Molto Nuvoloso | 26 | 24 | 88 | 1010 | 10 | N/NE 7.4 | |
| Ieri h: 15:25 | Molto Nuvoloso | 26 | 24 | 88 | 1010 | 10 | N/NE 11.1 | |
| Ieri h: 15:09 | Pioggia | 26 | 25 | 94 | 1010 | 10 | E/NE 7.4 | |
| Ieri h: 15:00 | Molto Nuvoloso | 26 | 25 | 94 | 1010 | 10 | N 5.5 | |
| Ieri h: 14:20 | Molto Nuvoloso | 25 | 24 | 94 | 1010 | 10 | N 5.5 | |
| Ieri h: 14:05 | Pioggia | 25 | 24 | 94 | 1010 | 8 | NO 14.8 | |
| Ieri h: 14:02 | Pioggia Foschia | 25 | 23 | 88 | 1010 | 3 | NO 24 | |
| Ieri h: 14:00 | Pioggia Foschia | 26 | 24 | 88 | 1010 | 2 | O/NO 37 | |
| Ieri h: 13:51 | Pioggia Foschia | 26 | 24 | 88 | 1009 | 3 | N/NE 18.5 | |
| Ieri h: 13:21 | Pioggia | 27 | 24 | 83 | 1010 | 10 | E/NE 11.1 | |
| Ieri h: 13:00 | Molto Nuvoloso | 27 | 24 | 83 | 1010 | 10 | NE 11.1 | |
| Ieri h: 12:00 | Molto Nuvoloso | 28 | 24 | 78 | 1011 | 10 | N 5.5 | |
| Ieri h: 11:00 | Molto Nuvoloso | 26 | 24 | 88 | 1012 | 10 | N 5.5 | |
| Ieri h: 10:00 | Molto Nuvoloso | 25 | 24 | 94 | 1012 | 10 | N 3.7 | |
| Ieri h: 09:31 | Pioggia | 25 | 24 | 94 | 1011 | 9 | N 1.8 | |
| Ieri h: 09:20 | Coperto | 25 | 24 | 94 | 1012 | 9 | N 3.7 | |
| Ieri h: 09:00 | Pioggia | 24 | 23 | 94 | 1012 | 8 | N 5.5 | |
| Ieri h: 08:47 | Pioggia | 24 | 23 | 94 | 1012 | 8 | N 5.5 | |
| Ieri h: 08:39 | Coperto | 24 | 23 | 94 | 1011 | 9 | N 5.5 | |
| Ieri h: 08:00 | Pioggia | 24 | 23 | 94 | 1011 | 8 | N 1.8 | |
| Ieri h: 07:00 | Pioggia | 23 | 23 | 100 | 1011 | 6 | N 1.8 | |
| Ieri h: 06:00 | Pioggia | 23 | 23 | 100 | 1011 | 6 | N 1.8 | |
| Ieri h: 05:00 | Pioggia | 23 | 23 | 100 | 1010 | 8 | N 1.8 | |



